Location: Ermatingen
(47.6706°N, 9.0857°E)
Time: 08:08:30
(UTC+00:00)

Cosmos 1428 Rocket - Pass Details

Date: 07 December 2021
Orbit: 949 x 987 km, 82.9° (Epoch: 26 January)

Event Time Altitude Azimuth Distance (km) Brightness Sun altitude
Rises 16:16:07 0° 352° (N) 3,637 7.3 -7.3°
Reaches altitude 10° 16:18:38 10° 355° (N) 2,690 6.6 -7.6°
Maximum altitude 16:24:46 68° 79° (E) 1,028 4.5 -8.6°
Drops below altitude 10° 16:30:54 10° 162° (SSE) 2,694 6.9 -9.5°
Sets 16:33:25 0° 165° (SSE) 3,642 7.6 -9.9°
